Other Public Products
Issued by NWS Grand Forks, ND

Home | Current Version | Previous Version | Graphics & Text | Print | Product List | Glossary On
Versions: 1 2 3 4 5 6 7 8 9 10 11 12 13 14 15 16 17 18 19 20 21 22 23 24 25 26 27 28 29 30 31 32 33 34 35 36 37 38 39 40 41 42 43 44 45 46 47 48 49 50
000
FPUS83 KFGF 230731
OPUFGF
PRAIRIE TO PINES WEATHER ROUNDUP
NATIONAL WEATHER SERVICE EASTERN NORTH DAKOTA/GRAND FORKS ND
200 AM CDT TUE MAY 23 2017

 **SATELLITE DATA USED TO AUGMENT SKY COVER AT AUTOMATED STATIONS**
 *****  WEATHER ACROSS EASTERN NORTH DAKOTA  *****

CITY           SKY/WX    TMP DP  RH WIND       PRES   REMARKS
GRAND FORKS    CLOUDY    49  46  90 N13       29.94S
GRAND FORKS AF CLOUDY    48  45  87 N14       29.95S
GRAND CITY NWS NOT AVBL
BUXTON           N/A     47  47  99 N10         N/A
DEVILS LAKE    CLOUDY    47  41  80 N17       30.02S
FARGO          CLOUDY    48  46  93 N13       29.90F
WAHPETON ARPT  CLOUDY    46  43  87 NW8       29.89F
$$

 *****  WEATHER ACROSS CENTRAL AND WESTERN NORTH DAKOTA  *****

CITY           SKY/WX    TMP DP  RH WIND       PRES   REMARKS
JAMESTOWN      CLOUDY    46  44  93 N15       29.96F
BISMARCK       CLOUDY    52  39  61 NW8       30.07F
MINOT          FAIR      47  37  68 NW10      30.10R
MINOT AFB      FAIR      40  35  83 NW10      30.09S
GARRISON         N/A     45  37  73 NW8       30.09F
WILLISTON      FAIR      39  34  82 N3        30.16R
DICKINSON      MOCLDY    44  34  67 N8        30.12R
HETTINGER      CLOUDY    50  34  54 N12       30.12S
$$

 *****  OTHER OBSERVATIONS NORTHEAST NORTH DAKOTA  *****

CITY           SKY/WX    TMP DP  RH WIND       PRES   REMARKS
WALHALLA       NOT AVBL
LANGDON        CLOUDY    46  45  93 N15       30.01S
CAVALIER       CLOUDY    48  45  87 N13G20    29.99S
GRAFTON        CLOUDY    48  46  93 N15G24    29.98S
CANDO          NOT AVBL
FORT TOTTEN      N/A     47  42  83 N7        29.95S
ROLLA          CLOUDY    48  39  71 N20       30.06S
RUGBY          NOT AVBL
 ***** THE ABOVE OBSERVATIONS ARE NON NWS ARE NOT QUALITY
        CONTROLLED AND MAY MIS-REPORT RAIN FOR SNOW...
$$

 *****  OTHER OBSERVATIONS SOUTHEAST NORTH DAKOTA *****

CITY           SKY/WX    TMP DP  RH WIND       PRES   REMARKS
COOPERSTOWN    CLOUDY    46  45  93 N17       29.96F
VALLEY CITY    NOT AVBL
OAKES          NOT AVBL
GWINNER        CLOUDY    48  45  87 MISG      29.92F
SHEYENNE NWR     N/A     48  46  91 N7        29.95S
BUFFALO          N/A     47  44  92 SW12        N/A
WYNDMERE         N/A     48  46  93 NW12        N/A
 ***** THE ABOVE OBSERVATIONS ARE NON NWS ARE NOT QUALITY
       CONTROLLED AND MAY MIS-REPORT RAIN FOR SNOW...
$$

  *****  WEATHER ACROSS NORTHERN MINNESOTA  *****

CITY           SKY/WX    TMP DP  RH WIND       PRES   REMARKS
FLAG ISLAND    CLOUDY    48  43  81 NE20      29.92S
WARROAD        CLOUDY    48  45  87 N15       29.92S
ROSEAU         CLOUDY    48  43  81 N15       29.92S
HALLOCK        CLOUDY    48  45  87 N13       29.96S
THF RVR FALLS  LGT RAIN  46  44  93 N12       29.92S
HALSTAD          N/A     47  46  98 N13         N/A
FOSSTON        DRIZZLE   45  43  93 N9        29.89S
BAUDETTE       CLOUDY    47  45  93 N13       29.88S
WASKISH        CLOUDY    46  45  93 N5        29.86F FOG
CROOKSTON      DRIZZLE   46  46 100 N12       29.93S
$$
  *****  WEATHER ACROSS CENTRAL AND WEST MINNESOTA  *****

CITY           SKY/WX    TMP DP  RH WIND       PRES   REMARKS
BEMIDJI        DRIZZLE   45  45  99 N6        29.85F
PARK RAPIDS    CLOUDY    46  42  86 NW6       29.84F
WADENA         CLOUDY    45  43  93 NW6       29.85F
DETROIT LAKES  DRIZZLE   45  45 100 NW9       29.88F
MOORHEAD       LGT RAIN  46  46 100 N13       29.91S
FERGUS FALLS   CLOUDY    46  46 100 N10       29.87S
ELBOW LAKE     DRIZZLE   46  46  99 W8        29.87F
MORRIS MN      CLOUDY    46  46 100 NW8       29.86F
STAPLES        DRIZZLE   45  43  93 NW5       29.85S
WHEATON        CLOUDY    48  45  87 NW12      29.90F
$$
  *****  WEATHER ELSEWHERE ACROSS MINNESOTA  *****

CITY           SKY/WX    TMP DP  RH WIND       PRES   REMARKS
DULUTH         CLOUDY    47  44  90 N6        29.81F
INTRNTL FALLS  CLOUDY    48  46  93 NE7       29.85R FOG
ELY            FAIR      36  36 100 CALM      29.83S
CLOQUET        CLOUDY    46  43  87 NW5       29.82S
BRAINERD       CLOUDY    46  44  93 N3        29.84F
HIBBING        CLOUDY    35  35 100 NW3       29.82F FOG
ALEXANDRIA     CLOUDY    46  44  93 N5        29.87F
SAINT CLOUD    CLOUDY    46  44  93 NW7       29.83F
MINNEAPOLIS    CLOUDY    53  47  79 S3        29.82F
$$

  *****  WEATHER ACROSS SOUTH DAKOTA  *****

CITY           SKY/WX    TMP DP  RH WIND       PRES   REMARKS
SIOUX FALLS    FAIR      48  42  80 NW13      29.92S
BROOKINGS      CLOUDY    46  43  89 W10       29.90F
WATERTOWN      LGT RAIN  46  44  93 NW15      29.90S
HURON          LGT RAIN  47  45  93 W8        29.96F
SISSETON         N/A     48  46  93 N12       29.89F
ABERDEEN       MOCLDY    47  42  83 NW14      29.96F
MITCHELL       CLOUDY    49  46  90 W6        29.96F
PIERRE         CLOUDY    52  39  61 W9        29.98F
MOBRIDGE       CLOUDY    52  40  63 N12       30.01R
RAPID CITY     CLOUDY    47  40  76 NW9       30.12F
$$

  *****  SOME WEATHER IN NEARBY STATES *****

CITY           SKY/WX    TMP DP  RH WIND       PRES   REMARKS
GLASGOW MT     FAIR      42  33  70 N7        30.18S
GREAT FALLS MT FAIR      51  41  68 E6        30.19F
CHEYENNE WY    LGT RAIN  38  34  85 N21G33    30.26R
SCOTTSBLUFF NE FAIR      40  36  86 NW7       30.19F
OMAHA NE       CLOUDY    53  45  74 N9        29.91F
DES MOINES IA  FAIR      53  52  96 NW5       29.83F
DAVENPORT IA   MOCLDY    56  51  84 SW9       29.83F
CHICAGO IL     CLOUDY    60  53  77 SW10      29.85F
EAU CLAIRE WI  CLOUDY    51  47  86 CALM      29.80R
LA CROSSE WI   FAIR      54  53  97 E3        29.77F FOG
$$

  *****  SOME NATIONAL WEATHER *****

CITY           SKY/WX    TMP DP  RH WIND       PRES   REMARKS
LA GUARDIA NY  CLOUDY    61  56  83 N5        29.92F
RALEIGH NC     CLOUDY    68  67  96 CALM      29.91F
ATLANTA GA     CLOUDY    68  66  93 CALM      29.88F
NEW ORLEANS LA CLOUDY    74  71  91 S10G22    29.81F
OKLAHOMA CITY  MOCLDY    60  58  92 N7        29.92F
ALBUQUERQUE NM FAIR      63  27  25 N5        30.09S
SALT LAKE CITY MOCLDY    62  42  47 S7        30.17R
LOS ANGELES CA MOCLDY    60  57  89 W7        29.97S
BOISE ID       FAIR      60  41  49 SE5       30.10S
SEATTLE WA     FAIR      70  49  47 N10       30.04F
$$

*** WEATHER ACROSS MANITOBA...SASKATCHEWAN AND ONTARIO ***
                ***ONTARIO***

CITY           SKY/WX    TMP DP  RH WIND       PRES   REMARKS
GERALDTON      DRZL/FOG  45  45 100 N5        29.83R VSB 3/4
THUNDER BAY    CLOUDY    46  46 100 SW5       29.82R
SIOUX LOOKOUT  CLOUDY    45  43  93 NE5       29.92S
TORONTO        CLEAR     50  46  87 SW6       29.92S
BIG TROUT LK   CLEAR     36  32  87 NE7       30.08S
PICKLE LAKE    NOT AVBL
DRYDEN         CLOUDY    45  43  93 NE13G22   29.91S
KENORA         LGT RAIN  46  41  81 NE15G22   29.95R
$$
                *** MANITOBA***

CITY           SKY/WX    TMP DP  RH WIND       PRES   REMARKS
BRANDON        PTCLDY    45  36  70 NE8       30.10R
DAUPHIN        CLEAR     43  34  70 W8        30.12R
ISLAND LAKE    CLEAR     46  34  61 E8        30.12S
PILOT MOUND      N/A     48  37  66 N15G22      N/A
THE PAS        CLEAR     48  41  76 SE8       30.13S
THOMPSON       PTCLDY    43  32  65 VRB2      30.16S
WINNIPEG       CLOUDY    50  41  71 NE18G26   30.03S
LYNN LAKE      CLOUDY    46  34  61 S5        30.09F
CHURCHILL      FOG       28  28 100 S8        30.20F VSB 1/4 WCI  20
GILLAM         CLEAR     34  32  93 E3        30.18F
$$
                ***SASKATCHEWAN***

CITY           SKY/WX    TMP DP  RH WIND       PRES   REMARKS
ESTEVAN        PTCLDY    45  39  81 SW5       30.15S
KINDERSLEY     PTCLDY    54  32  43 S10       30.12S
LLOYDMINSTER   CLOUDY    57  39  51 S10       30.06S
PRINCE ALBERT  MOCLDY    41  34  75 E5        30.10S
REGINA         CLEAR     45  28  53 VRB5      30.15R
YORKTON        CLEAR     46  32  57 CALM      30.14F



USA.gov is the U.S. government's official web portal to all federal, state and local government web resources and services.